SCP
0 0 0 0 0 0 0 0 0 0 0 0 0 0 0 0 0 0 0 0 0 0 0 0 0 0 0 0 0 0 0 0 0 0 0 0 0 0 0 0 -0 0 -0 0 -0 0 0 0 -0 0 0 0 0 0
0 0 0 0 0 0 0 0 0 0 0 0 0 0 0 0 0 0 0 0 0 0 0 0 0 0 0 0 0 0 0 0 0 0 0 0 0 0 0 0 0 0 0 0 0 0 -0 -0 0 0 0 0 0 0
0 0 0 0 0 0 0 0 0 0 0 0 0 0 0 0 0 0 0 0 0 0 0 0 0 0 0 0 0 0 0 -0 0 0 0 0 0 0 0 0 0 0 0 0 0 0 0 0 0 0 0 0 0 0
0 0 0 0 0 0 0 0 0 0 -0 0 0 0 0 0 0 0 0 0 0 0 0 0 0 0 0 0 0 0 0 -0 0 0 0 0 0 0 0 0 0 0 0 0 0 0 0 0 0 0 0 0 0 0
0 0 0 0 0 0 0 0 0 0 -0 0 0 0 0 0 0 0 0 0 0 0 0 0 0 0 -0 0 0 0 0 -0 0 0 -0 0 0 0 0 0 0 0 0 0 0 0 0 0 0 0 0 0 0 0
0 0 0 0 0 0 0 0 0 0 -0 0 0 0 0 0 0 0 0 0 0 0 0 0 0 0 -0 0 0 0 0 0 0 0 0 -0 0 0 -0 -0 0 -0 -0 0 0 0 0 -0 -0 0 0 0 0 0
0 0 0 0 0 0 0 0 0 0 0 0 0 0 -0 0 0 0 0 0 0 0 0 0 0 -0 0 0 0 0 0 0 0 0 -0 -0 0 -0 -0 0 0 -0 0 0 0 0 -0 -0 -0 -0 0 0 0 0
0 0 0 0 0 0 0 -0 -0 0 0 0 0 0 0 0 0 0 0 0 -0 0 0 0 0 -0 0 0 0 0 0 0 0 0 0 -0 0 0 -0 0 0 0 -0 -0 0 -0 -0 -0 -0 -0 0 0 -0 0
0 0 0 0 0 0 0 -0 0 0 0 0 0 0 0 0 0 0 0 0 0 0 0 0 0 0 -0 0 0 0 0 0 0 0 0 -0 -0 -0 -0 -0 0 -0 -0 -0 -0 -0 -0 -0 -0 -0 -0 -0 0 0
0 0 0 0 0 0 0 0 0 0 0 0 0 0 0 0 0 0 0 0 0 0 0 0 0 0 0 0 0 0 0 0 0 0 0 0 0 0 -0 -0 -0 -0 -0 -0 0 0 0 -0 -0 -0 -0 -0 -0 -0
0 0 0 0 0 0 0 0 0 0 0 0 0 0 0 0 0 0 0 0 0 0 -0 0 -0 0 0 0 0 0 0 0 0 0 0 -0 -0 0 0 0 -0 -0 -0 -0 -0 -0 -0 -0 -0 -0 -0 -0 -0 0
0 0 0 0 0 0 0 0 0 0 0 0 0 0 0 0 0 0 0 0 0 0 0 0 0 0 0 0 0 0 0 0 0 0 0 0 0 0 0 0 0 0 -0 -0 -0 -0 -0 0 0 -0 -0 -0 0 0
0 0 0 0 0 0 0 0 0 0 0 0 0 0 0 0 0 0 0 0 0 0 0 0 0 0 0 0 0 0 0 0 0 0 0 0 -0 0 -0 0 0 -0 -0 -0 -0 -0 -0 -0 0 -0 -0 -0 -0 0
0 0 0 0 0 0 0 0 0 0 0 0 0 0 0 0 0 0 0 0 0 0 0 0 0 0 0 0 0 0 0 0 0 0 0 0 0 0 0 -0 0 0 0 -0 -0 -0 -0 -0 -0 -0 -0 -0 -0 0
0 0 0 0 0 0 0 0 0 0 0 0 0 0 0 0 0 0 0 0 0 0 0 0 0 0 0 0 0 0 0 0 0 0 0 0 0 0 -0 -0 0 0 0 -0 -0 -0 -0 -0 -0 -0 -0 -0 -0 -0
0 0 0 0 0 0 0 0 0 0 0 0 0 0 0 0 0 0 0 0 0 0 0 0 0 0 0 0 0 0 0 0 0 0 0 0 0 0 0 0 0 0 0 0 -0 -0 -0 -0 0 0 0 0 -0 -0
0 0 0 0 0 0 0 0 0 0 0 0 0 0 0 0 0 0 0 0 0 0 0 0 0 0 0 0 0 0 0 0 0 0 0 0 0 0 -0 -0 0 0 0 0 0 -0 0 0 0 0 0 0 -0 -0
0 0 0 0 0 0 0 0 0 0 0 0 0 0 0 0 0 0 0 0 0 0 0 0 0 0 0 0 0 0 0 0 0 0 0 0 -0 -0 -0 0 0 0 0 0 0 0 0 0 0 0 -0 -0 -0 -0
0 0 0 0 0 0 0 0 0 0 0 0 0 0 0 0 0 0 0 0 0 0 0 0 0 0 0 0 0 0 0 0 0 0 0 0 0 0 0 0 0 0 0 0 0 0 0 0 0 -0 -0 -0 0 -0
0 0 0 0 0 0 0 0 0 0 0 0 0 0 0 0 0 0 0 0 0 0 0 0 0 0 0 0 0 0 0 0 0 0 0 0 0 0 0 0 0 0 0 0 0 0 0 0 0 0 0 -0 0 0
0 0 0 0 0 0 0 0 0 0 0 0 0 0 0 0 0 0 0 0 0 0 0 0 0 0 0 0 0 0 0 0 0 0 0 0 0 0 0 0 0 0 0 0 0 0 0 0 0 0 0 0 0 0
0 0 0 0 0 0 0 0 0 0 0 0 0 0 0 0 0 0 0 0 0 0 0 0 0 0 0 0 0 0 0 0 0 0 0 0 0 0 0 0 0 0 0 0 0 0 0 0 0 0 0 0 0 0
0 0 0 0 0 0 0 0 0 0 0 0 0 0 0 0 0 0 0 0 0 0 0 0 0 0 0 0 0 0 0 0 0 0 0 0 0 0 0 0 0 0 0 0 -0 0 0 0 0 0 0 0 0 0
0 0 0 0 0 0 0 0 0 0 0 0 -0 0 0 0 0 0 0 0 0 -0 -0 0 0 0 0 0 0 0 0 0 0 0 0 0 0 0 0 0 0 0 0 0 0 0 0 0 0 0 0 0 0 0
0 0 0 0 0 0 0 0 0 0 0 -0 -0 0 -0 -0 0 0 0 0 0 0 0 0 0 0 0 0 0 0 0 0 0 0 0 0 0 0 0 0 0 0 0 0 0 0 0 0 0 0 0 0 0 0
0 0 0 0 0 0 0 0 0 0 0 -0 0 -0 0 0 -0 0 0 0 0 0 0 0 0 0 0 0 0 0 0 0 0 0 0 0 0 0 0 0 0 0 0 0 0 0 0 0 0 0 0 0 0 0
0 0 0 0 0 0 0 0 0 0 0 0 -0 -0 0 0 -0 -0 0 0 0 -0 0 0 0 0 0 0 0 0 0 0 0 0 0 0 0 0 0 0 0 0 0 0 0 0 0 0 0 0 0 0 0 0
0 0 0 0 0 0 0 0 0 0 0 -0 -0 -0 0 0 -0 -0 -0 0 -0 0 0 0 0 0 0 0 0 0 0 0 0 0 0 0 0 0 0 0 0 0 0 0 0 0 0 0 0 0 0 0 0 0
0 0 0 0 0 0 0 0 0 0 0 -0 -0 -0 0 -0 0 0 -0 0 0 -0 -0 -0 0 0 0 0 0 0 0 0 0 0 0 0 0 0 0 0 0 0 0 0 0 0 0 0 0 0 0 0 0 0
0 0 0 0 0 0 0 0 0 0 0 0 -0 0 0 0 -0 0 -0 0 0 0 0 0 -0 -0 0 0 0 0 0 0 0 0 0 0 0 0 0 0 0 0 0 0 0 0 0 0 0 0 0 0 0 0
0 0 0 0 0 0 0 0 0 0 0 0 -0 0 0 0 0 0 0 0 0 0 0 0 0 0 0 0 0 0 0 0 0 0 0 0 0 0 0 0 0 0 0 0 0 0 0 0 0 0 0 0 0 0
0 0 0 0 0 0 0 0 0 0 0 0 0 0 0 0 0 0 0 0 0 0 0 0 0 0 0 0 0 0 0 0 0 0 0 0 0 0 0 0 0 0 0 0 0 0 0 0 0 0 0 0 0 0
0 0 0 0 0 0 0 0 0 0 0 0 0 0 -0 0 0 0 0 0 0 0 0 0 0 0 0 0 0 0 0 0 0 0 0 0 0 0 0 0 0 0 0 0 0 0 0 0 0 0 0 0 0 0
Wind_Speed_500mb
57 52 50 51 55 61 67 67 63 59 59 53 46 40 28 31 26 25 31 31 23 17 53 49 28 24 23 24 6 20 18 9 8 12 6 5 6 7 7 6 11 5 4 5 9 11 9 15 30 8 9 14 21 35
55 54 57 62 62 68 67 65 58 57 55 51 43 41 34 30 30 24 35 34 25 30 62 84 76 70 71 49 43 11 8 6 5 5 5 6 5 6 10 8 5 1 1 5 4 4 12 46 41 44 12 14 44 40
55 61 63 63 69 68 65 64 59 57 53 51 40 33 37 34 31 26 38 39 45 28 56 19 6 3 14 30 24 14 8 7 6 3 4 5 8 3 5 6 8 4 1 2 5 10 12 40 36 48 71 53 60 34
60 62 66 69 68 64 59 59 55 51 52 51 44 36 27 32 32 33 39 42 44 16 11 18 16 49 23 27 36 31 30 16 8 7 6 5 6 6 4 6 5 5 11 12 7 11 16 22 46 62 61 47 53 37
60 65 67 65 62 60 58 57 52 47 47 48 42 34 31 33 28 33 44 45 41 29 9 27 45 1 24 11 29 35 39 27 7 2 5 6 9 5 4 3 4 6 7 6 6 25 17 20 45 46 48 53 44 39
61 61 61 60 57 53 52 52 50 48 47 48 40 36 34 32 25 29 11 4 4 31 7 7 21 15 14 10 22 33 35 22 8 6 10 10 11 4 4 4 10 14 18 18 11 36 24 24 28 30 29 31 27 47
56 54 53 53 52 50 51 51 51 47 43 42 38 32 31 28 25 19 6 5 2 19 8 9 15 9 16 13 22 32 32 17 11 7 8 8 7 10 1 4 13 21 22 22 19 23 21 32 21 19 12 23 28 31
50 49 49 49 48 47 49 49 48 46 42 38 32 32 31 29 28 24 9 35 28 17 11 4 8 13 12 11 10 21 12 11 11 8 8 7 2 2 4 12 20 21 25 24 28 24 16 23 35 35 35 31 40 56
45 46 46 46 47 47 48 47 47 43 38 34 30 19 7 3 4 10 13 20 36 22 5 7 4 7 3 8 8 11 15 4 8 5 6 3 3 5 9 6 8 9 10 17 17 24 24 36 40 45 50 52 53 49
42 43 44 44 45 44 44 45 45 41 33 25 11 4 3 3 8 11 4 4 13 7 11 8 12 6 7 6 6 0 6 4 5 6 8 1 6 7 10 8 6 7 13 15 22 28 27 32 35 36 45 50 46 39
42 40 40 41 39 36 35 35 43 48 28 22 19 7 6 9 11 4 6 9 8 6 12 13 30 11 11 6 7 4 4 1 3 4 2 4 6 7 17 13 9 2 5 13 20 20 23 24 28 30 39 50 49 38
41 39 38 37 32 29 27 30 38 43 38 38 27 25 16 5 5 5 6 7 9 8 11 10 16 24 10 15 4 1 3 3 7 8 1 5 7 22 22 18 8 8 8 15 17 13 19 25 25 31 41 53 56 55
37 36 33 34 29 26 28 34 40 42 39 9 5 6 4 4 3 8 7 6 5 5 6 7 6 10 12 12 4 5 3 8 6 5 5 7 7 27 25 20 16 15 8 15 14 15 14 18 22 34 38 47 52 55
33 32 31 30 25 30 38 39 40 35 13 5 6 7 8 9 9 9 7 4 17 32 45 37 15 12 7 6 5 3 5 5 4 2 8 5 17 29 26 24 23 21 14 12 13 16 17 18 21 29 32 40 46 54
32 28 26 21 29 40 48 43 33 24 7 7 9 9 12 22 19 16 18 23 30 40 30 12 3 9 3 4 5 2 1 5 9 9 7 11 29 33 31 27 24 27 22 14 18 13 16 19 18 20 21 29 36 42
35 29 14 29 39 44 38 39 24 7 7 9 15 10 19 9 12 9 19 29 31 30 28 3 4 1 8 6 6 11 8 10 8 7 15 18 36 38 33 24 26 34 24 20 22 20 18 14 16 17 17 19 27 33
35 22 32 33 36 40 35 24 8 11 11 11 16 27 41 41 28 30 27 44 47 27 5 7 4 8 5 4 5 8 10 7 13 19 17 27 30 33 33 22 30 32 32 28 24 21 22 19 16 14 14 17 20 26
36 35 34 30 30 43 28 7 9 11 16 24 13 19 24 35 49 47 48 50 34 10 6 7 8 6 7 6 7 7 18 13 9 13 21 28 27 30 33 32 26 37 34 30 30 27 23 21 17 9 14 15 17 21
37 40 36 21 19 26 12 7 10 11 19 27 32 43 41 43 50 45 46 49 46 42 12 10 9 7 8 12 12 18 20 22 21 29 29 22 22 38 34 35 38 45 35 35 34 27 25 23 10 4 7 11 13 19
35 31 18 11 13 7 9 14 10 15 12 11 22 39 44 37 47 47 36 49 44 17 10 8 9 20 28 36 29 42 33 29 25 27 26 24 22 43 46 38 40 48 36 36 37 34 31 25 14 8 8 9 10 12
34 21 30 29 23 19 13 12 13 14 17 13 21 32 23 40 48 46 43 24 12 8 5 17 30 37 42 48 47 40 34 37 43 36 33 29 24 36 44 48 35 52 46 46 48 44 38 28 25 18 17 12 7 7
27 26 32 16 8 8 14 17 15 21 18 28 46 22 12 15 13 14 35 12 8 5 14 28 36 39 38 35 35 40 36 44 43 40 44 33 39 40 46 46 40 59 55 48 48 51 43 35 32 26 27 18 8 3
25 25 11 8 8 8 15 13 11 9 6 11 20 11 9 9 13 25 9 6 8 25 32 35 37 33 31 26 26 28 39 43 39 38 43 45 39 37 40 46 42 55 59 48 45 48 50 46 38 35 33 23 13 6
17 7 5 6 8 9 11 9 12 10 8 8 8 11 9 8 13 6 5 4 22 38 40 36 41 40 32 26 18 23 20 24 45 41 39 42 46 54 49 50 51 56 49 50 49 52 55 51 47 44 42 31 22 15
7 6 4 8 9 7 7 6 5 7 5 6 8 8 7 11 5 4 5 8 24 35 39 31 34 34 32 31 26 27 11 17 30 40 46 41 35 41 46 40 40 45 46 57 63 58 60 56 53 50 42 32 26 24
2 8 10 8 8 7 5 9 7 5 6 7 8 14 13 4 6 4 4 25 19 45 48 52 43 45 44 36 28 31 36 19 23 39 44 42 43 51 49 52 54 49 49 54 56 65 64 64 61 52 43 33 29 26
6 10 11 13 15 22 13 15 21 9 7 7 5 8 7 8 6 6 20 46 41 26 41 44 46 45 47 57 43 42 31 15 16 19 25 33 33 38 47 61 66 60 54 61 55 68 70 65 63 55 45 39 35 29
13 11 11 18 15 17 8 6 6 5 5 1 7 4 4 5 10 25 28 43 41 33 31 36 43 41 43 47 53 50 49 19 14 17 29 30 28 35 46 42 45 44 43 53 64 72 73 60 56 53 46 41 40 34
14 15 20 29 20 14 8 7 6 9 8 4 3 4 6 12 28 29 35 37 33 35 42 45 45 42 39 40 41 51 46 51 45 44 39 30 21 15 18 34 39 30 37 64 57 67 71 61 56 57 48 39 36 31
10 9 9 10 5 4 9 17 18 22 22 24 18 10 13 21 49 45 43 41 41 41 39 41 44 46 43 39 39 44 48 46 43 45 38 32 25 14 7 5 20 32 40 50 53 66 74 71 69 64 53 46 40 33
14 8 9 10 10 23 36 33 27 26 26 13 11 12 17 16 20 58 51 46 42 39 39 38 40 44 45 41 37 35 39 41 38 37 33 25 19 19 18 17 13 29 36 45 61 63 68 73 73 71 60 49 41 30
9 12 7 6 13 27 28 17 8 4 11 13 22 9 13 12 14 33 60 48 45 46 43 39 39 37 35 28 27 31 29 25 28 28 30 29 26 22 17 20 16 19 29 51 55 57 52 67 68 55 51 49 42 33
15 20 7 11 10 11 19 19 7 11 13 9 18 23 21 11 10 29 37 46 40 34 31 31 29 25 22 22 29 31 35 36 35 34 31 32 35 36 30 14 4 10 19 36 56 62 68 61 55 59 53 43 33 22
Wind_Direction_500mb
314 315 318 318 319 320 321 322 321 324 322 321 320 316 303 295 304 304 297 294 277 248 282 276 276 248 259 268 274 309 333 0 341 16 343 320 298 319 300 302 327 329 286 196 202 218 240 357 316 208 323 335 344 338
311 314 316 315 315 319 319 319 323 325 323 320 321 322 313 292 296 297 291 294 289 262 276 296 287 270 264 275 264 273 264 294 299 340 341 303 301 297 316 317 331 303 303 280 260 317 288 299 261 269 12 21 2 343
314 316 316 316 316 318 317 319 327 323 320 318 316 319 320 312 303 284 290 292 295 281 303 286 280 152 265 287 285 230 242 230 222 219 275 279 275 288 322 303 294 284 128 288 282 25 315 308 351 28 34 9 354 7
313 314 314 313 315 314 315 320 322 322 318 318 319 316 304 301 293 289 283 285 284 275 278 282 300 303 288 264 234 240 250 274 253 241 251 268 274 257 283 283 294 267 309 332 292 282 309 309 24 27 31 22 13 47
311 312 313 315 316 315 316 319 324 324 319 318 317 313 309 310 300 291 289 287 267 226 284 291 312 61 309 299 211 227 235 247 247 179 240 250 261 266 270 262 283 323 321 358 300 306 314 345 30 24 27 30 7 44
311 314 316 315 315 317 319 321 321 323 320 317 316 307 303 303 300 313 322 342 212 199 284 290 315 310 335 216 216 226 227 245 229 216 243 267 256 239 309 289 272 319 332 316 292 327 6 40 40 26 21 33 32 55
315 317 316 316 319 320 321 321 321 323 322 320 315 308 300 294 279 246 253 246 198 166 244 286 308 296 316 219 221 235 239 246 249 245 238 248 263 206 213 286 312 330 335 347 347 352 17 39 33 44 34 39 52 70
315 318 318 320 321 324 324 323 325 327 324 320 312 304 295 281 276 276 334 221 172 224 253 285 275 312 203 194 225 216 212 215 239 253 255 240 155 187 265 270 304 327 336 6 24 31 34 39 38 35 40 36 33 35
315 317 320 322 323 326 327 328 329 331 330 324 317 318 325 103 184 306 302 205 216 219 263 226 267 266 299 234 231 204 195 198 248 244 249 155 313 219 233 254 310 346 332 348 16 29 30 34 42 45 37 30 33 33
316 318 322 323 327 330 330 333 333 335 342 336 327 315 276 83 298 292 256 216 205 227 226 254 207 264 306 337 296 43 202 208 208 254 311 82 247 227 213 234 273 324 343 343 16 27 27 44 54 47 40 39 45 48
315 320 322 324 331 330 346 352 346 347 355 4 347 306 272 290 309 243 235 192 204 244 229 241 217 215 244 178 231 233 208 250 270 260 216 307 291 223 178 217 279 249 43 62 59 56 58 57 48 50 41 42 48 50
316 319 321 324 329 334 343 330 338 339 340 324 301 299 312 275 242 262 237 194 199 235 212 204 223 207 235 210 165 238 172 31 246 336 14 268 255 182 189 198 169 137 128 108 64 64 38 29 36 56 48 46 47 43
315 319 321 322 322 327 326 330 333 325 322 335 268 248 228 243 241 220 228 249 242 226 301 269 268 224 194 209 102 84 114 235 324 43 234 233 278 187 193 180 141 152 147 142 103 92 66 56 49 43 45 44 46 48
314 318 320 318 317 315 327 334 335 336 338 297 257 250 205 207 238 207 204 220 318 312 311 302 235 207 191 137 152 173 225 80 40 342 243 240 194 189 186 188 181 169 159 155 143 117 97 79 72 60 53 42 41 43
318 322 310 295 306 318 324 323 324 312 259 245 245 244 227 228 241 256 275 281 300 314 340 322 305 186 253 162 200 116 198 257 199 228 233 223 170 167 202 193 181 178 159 166 178 148 116 108 89 81 66 46 44 51
322 334 312 316 311 310 318 314 316 256 247 243 234 258 259 281 279 284 308 306 328 318 325 72 302 310 239 177 136 214 148 224 242 215 221 185 185 191 200 197 207 187 185 186 165 152 142 136 128 124 104 56 53 58
316 324 329 328 318 317 323 305 235 221 232 234 246 245 258 278 270 279 301 302 313 322 211 148 248 210 325 222 210 176 202 221 217 196 190 194 198 209 211 214 200 187 187 184 185 166 151 157 142 126 96 82 66 67
310 325 330 334 327 334 334 226 240 242 242 247 245 271 270 274 288 291 295 303 295 270 249 228 207 184 232 221 254 237 226 230 218 198 192 190 198 211 205 205 207 197 190 191 183 175 182 180 186 137 94 90 90 79
316 322 326 322 324 326 299 259 238 265 252 269 274 279 286 287 295 298 300 303 303 287 248 213 217 196 227 204 245 255 235 221 222 217 221 198 216 214 206 213 207 193 192 189 186 193 189 190 186 157 106 95 90 85
316 328 342 348 289 298 272 269 243 260 260 264 275 283 291 290 301 300 298 303 301 287 230 221 205 220 239 263 259 276 275 254 231 217 228 210 215 216 218 214 210 200 194 196 190 186 183 183 187 180 130 107 72 93
329 341 311 313 306 241 261 278 255 257 278 273 283 322 307 295 293 289 293 332 272 222 232 251 284 294 298 290 279 272 278 272 252 236 233 217 209 216 208 213 220 201 201 199 191 192 198 199 192 185 183 160 119 90
333 334 326 331 251 246 257 250 255 289 303 286 293 300 279 295 290 301 328 279 236 16 7 340 330 322 304 294 285 275 272 270 247 254 238 226 211 213 212 210 213 200 205 204 203 198 196 193 194 191 195 193 174 110
331 323 296 246 253 250 264 269 248 275 297 300 302 288 262 272 270 295 256 289 39 352 350 342 332 333 328 299 298 288 272 270 246 233 230 231 227 224 232 217 214 208 207 209 204 201 193 190 196 203 198 202 197 191
323 267 268 276 239 271 294 271 258 253 302 360 307 299 304 284 278 248 239 48 356 348 342 343 347 343 333 340 327 325 321 271 247 231 230 232 231 223 221 214 213 217 216 214 205 198 197 194 199 202 196 197 197 202
289 246 211 266 258 258 254 262 342 47 300 265 282 262 252 318 302 319 52 357 0 1 360 355 353 350 351 344 349 354 331 272 247 241 235 237 235 211 215 216 211 219 217 207 196 197 195 198 196 193 195 197 199 193
259 229 190 229 255 226 322 327 295 242 314 274 260 282 310 276 256 6 68 358 348 17 13 21 13 6 11 3 350 345 332 302 255 232 227 225 226 222 212 199 201 207 205 201 203 194 197 196 194 194 197 201 205 203
272 280 240 244 273 297 292 276 273 253 245 236 258 350 344 310 343 37 12 3 350 351 3 5 16 20 17 14 24 19 355 285 250 233 225 211 221 230 222 203 209 208 200 201 211 207 203 201 196 196 199 204 206 210
249 270 239 249 255 242 242 230 245 246 256 247 29 300 280 293 30 347 353 359 2 6 7 6 14 28 29 17 10 21 36 61 103 171 193 184 194 206 204 210 211 210 216 213 212 206 206 206 205 203 205 205 196 195
252 260 285 280 274 246 233 226 247 238 247 19 359 306 47 52 13 11 12 13 23 29 30 25 21 22 25 30 24 28 27 32 58 69 84 90 118 129 206 217 220 236 222 215 215 211 209 214 214 208 204 202 196 191
262 261 267 274 263 265 251 224 237 254 275 287 280 277 107 78 36 34 34 34 35 32 33 36 33 30 27 28 33 29 26 32 32 36 39 36 25 22 15 266 234 221 213 213 212 209 213 213 206 199 195 190 189 190
275 277 254 247 266 300 327 325 309 290 282 298 325 241 162 139 47 30 35 36 36 35 33 34 33 28 23 27 30 32 35 29 33 30 28 19 354 338 334 302 254 225 214 218 212 211 214 210 199 192 190 188 186 186
238 228 238 262 285 314 331 327 308 63 56 55 23 81 89 79 46 19 18 27 33 35 32 33 33 32 25 29 42 47 41 32 29 32 32 24 16 10 344 313 297 265 235 220 218 213 219 213 188 186 193 187 184 182
275 282 290 306 295 321 313 312 245 104 76 64 39 48 62 72 71 17 12 25 28 27 33 39 42 39 32 36 51 61 60 57 55 54 53 48 48 44 41 26 267 206 213 209 204 202 195 193 197 184 177 173 168 170
Wind_Speed_850mb
57 52 50 51 55 61 67 67 63 59 59 53 46 40 28 31 26 25 31 31 23 17 53 49 28 24 23 24 6 20 18 9 8 12 6 5 6 7 7 6 11 5 4 5 9 11 9 15 30 8 9 14 21 35
55 54 57 62 62 68 67 65 58 57 55 51 43 41 34 30 30 24 35 34 25 30 62 84 76 70 71 49 43 11 8 6 5 5 5 6 5 6 10 8 5 1 1 5 4 4 12 46 41 44 12 14 44 40
55 61 63 63 69 68 65 64 59 57 53 51 40 33 37 34 31 26 38 39 45 28 56 19 6 3 14 30 24 14 8 7 6 3 4 5 8 3 5 6 8 4 1 2 5 10 12 40 36 48 71 53 60 34
60 62 66 69 68 64 59 59 55 51 52 51 44 36 27 32 32 33 39 42 44 16 11 18 16 49 23 27 36 31 30 16 8 7 6 5 6 6 4 6 5 5 11 12 7 11 16 22 46 62 61 47 53 37
60 65 67 65 62 60 58 57 52 47 47 48 42 34 31 33 28 33 44 45 41 29 9 27 45 1 24 11 29 35 39 27 7 2 5 6 9 5 4 3 4 6 7 6 6 25 17 20 45 46 48 53 44 39
61 61 61 60 57 53 52 52 50 48 47 48 40 36 34 32 25 29 11 4 4 31 7 7 21 15 14 10 22 33 35 22 8 6 10 10 11 4 4 4 10 14 18 18 11 36 24 24 28 30 29 31 27 47
56 54 53 53 52 50 51 51 51 47 43 42 38 32 31 28 25 19 6 5 2 19 8 9 15 9 16 13 22 32 32 17 11 7 8 8 7 10 1 4 13 21 22 22 19 23 21 32 21 19 12 23 28 31
50 49 49 49 48 47 49 49 48 46 42 38 32 32 31 29 28 24 9 35 28 17 11 4 8 13 12 11 10 21 12 11 11 8 8 7 2 2 4 12 20 21 25 24 28 24 16 23 35 35 35 31 40 56
45 46 46 46 47 47 48 47 47 43 38 34 30 19 7 3 4 10 13 20 36 22 5 7 4 7 3 8 8 11 15 4 8 5 6 3 3 5 9 6 8 9 10 17 17 24 24 36 40 45 50 52 53 49
42 43 44 44 45 44 44 45 45 41 33 25 11 4 3 3 8 11 4 4 13 7 11 8 12 6 7 6 6 0 6 4 5 6 8 1 6 7 10 8 6 7 13 15 22 28 27 32 35 36 45 50 46 39
42 40 40 41 39 36 35 35 43 48 28 22 19 7 6 9 11 4 6 9 8 6 12 13 30 11 11 6 7 4 4 1 3 4 2 4 6 7 17 13 9 2 5 13 20 20 23 24 28 30 39 50 49 38
41 39 38 37 32 29 27 30 38 43 38 38 27 25 16 5 5 5 6 7 9 8 11 10 16 24 10 15 4 1 3 3 7 8 1 5 7 22 22 18 8 8 8 15 17 13 19 25 25 31 41 53 56 55
37 36 33 34 29 26 28 34 40 42 39 9 5 6 4 4 3 8 7 6 5 5 6 7 6 10 12 12 4 5 3 8 6 5 5 7 7 27 25 20 16 15 8 15 14 15 14 18 22 34 38 47 52 55
33 32 31 30 25 30 38 39 40 35 13 5 6 7 8 9 9 9 7 4 17 32 45 37 15 12 7 6 5 3 5 5 4 2 8 5 17 29 26 24 23 21 14 12 13 16 17 18 21 29 32 40 46 54
32 28 26 21 29 40 48 43 33 24 7 7 9 9 12 22 19 16 18 23 30 40 30 12 3 9 3 4 5 2 1 5 9 9 7 11 29 33 31 27 24 27 22 14 18 13 16 19 18 20 21 29 36 42
35 29 14 29 39 44 38 39 24 7 7 9 15 10 19 9 12 9 19 29 31 30 28 3 4 1 8 6 6 11 8 10 8 7 15 18 36 38 33 24 26 34 24 20 22 20 18 14 16 17 17 19 27 33
35 22 32 33 36 40 35 24 8 11 11 11 16 27 41 41 28 30 27 44 47 27 5 7 4 8 5 4 5 8 10 7 13 19 17 27 30 33 33 22 30 32 32 28 24 21 22 19 16 14 14 17 20 26
36 35 34 30 30 43 28 7 9 11 16 24 13 19 24 35 49 47 48 50 34 10 6 7 8 6 7 6 7 7 18 13 9 13 21 28 27 30 33 32 26 37 34 30 30 27 23 21 17 9 14 15 17 21
37 40 36 21 19 26 12 7 10 11 19 27 32 43 41 43 50 45 46 49 46 42 12 10 9 7 8 12 12 18 20 22 21 29 29 22 22 38 34 35 38 45 35 35 34 27 25 23 10 4 7 11 13 19
35 31 18 11 13 7 9 14 10 15 12 11 22 39 44 37 47 47 36 49 44 17 10 8 9 20 28 36 29 42 33 29 25 27 26 24 22 43 46 38 40 48 36 36 37 34 31 25 14 8 8 9 10 12
34 21 30 29 23 19 13 12 13 14 17 13 21 32 23 40 48 46 43 24 12 8 5 17 30 37 42 48 47 40 34 37 43 36 33 29 24 36 44 48 35 52 46 46 48 44 38 28 25 18 17 12 7 7
27 26 32 16 8 8 14 17 15 21 18 28 46 22 12 15 13 14 35 12 8 5 14 28 36 39 38 35 35 40 36 44 43 40 44 33 39 40 46 46 40 59 55 48 48 51 43 35 32 26 27 18 8 3
25 25 11 8 8 8 15 13 11 9 6 11 20 11 9 9 13 25 9 6 8 25 32 35 37 33 31 26 26 28 39 43 39 38 43 45 39 37 40 46 42 55 59 48 45 48 50 46 38 35 33 23 13 6
17 7 5 6 8 9 11 9 12 10 8 8 8 11 9 8 13 6 5 4 22 38 40 36 41 40 32 26 18 23 20 24 45 41 39 42 46 54 49 50 51 56 49 50 49 52 55 51 47 44 42 31 22 15
7 6 4 8 9 7 7 6 5 7 5 6 8 8 7 11 5 4 5 8 24 35 39 31 34 34 32 31 26 27 11 17 30 40 46 41 35 41 46 40 40 45 46 57 63 58 60 56 53 50 42 32 26 24
2 8 10 8 8 7 5 9 7 5 6 7 8 14 13 4 6 4 4 25 19 45 48 52 43 45 44 36 28 31 36 19 23 39 44 42 43 51 49 52 54 49 49 54 56 65 64 64 61 52 43 33 29 26
6 10 11 13 15 22 13 15 21 9 7 7 5 8 7 8 6 6 20 46 41 26 41 44 46 45 47 57 43 42 31 15 16 19 25 33 33 38 47 61 66 60 54 61 55 68 70 65 63 55 45 39 35 29
13 11 11 18 15 17 8 6 6 5 5 1 7 4 4 5 10 25 28 43 41 33 31 36 43 41 43 47 53 50 49 19 14 17 29 30 28 35 46 42 45 44 43 53 64 72 73 60 56 53 46 41 40 34
14 15 20 29 20 14 8 7 6 9 8 4 3 4 6 12 28 29 35 37 33 35 42 45 45 42 39 40 41 51 46 51 45 44 39 30 21 15 18 34 39 30 37 64 57 67 71 61 56 57 48 39 36 31
10 9 9 10 5 4 9 17 18 22 22 24 18 10 13 21 49 45 43 41 41 41 39 41 44 46 43 39 39 44 48 46 43 45 38 32 25 14 7 5 20 32 40 50 53 66 74 71 69 64 53 46 40 33
14 8 9 10 10 23 36 33 27 26 26 13 11 12 17 16 20 58 51 46 42 39 39 38 40 44 45 41 37 35 39 41 38 37 33 25 19 19 18 17 13 29 36 45 61 63 68 73 73 71 60 49 41 30
9 12 7 6 13 27 28 17 8 4 11 13 22 9 13 12 14 33 60 48 45 46 43 39 39 37 35 28 27 31 29 25 28 28 30 29 26 22 17 20 16 19 29 51 55 57 52 67 68 55 51 49 42 33
15 20 7 11 10 11 19 19 7 11 13 9 18 23 21 11 10 29 37 46 40 34 31 31 29 25 22 22 29 31 35 36 35 34 31 32 35 36 30 14 4 10 19 36 56 62 68 61 55 59 53 43 33 22
Wind_Direction_850mb
314 315 318 318 319 320 321 322 321 324 322 321 320 316 303 295 304 304 297 294 277 248 282 276 276 248 259 268 274 309 333 0 341 16 343 320 298 319 300 302 327 329 286 196 202 218 240 357 316 208 323 335 344 338
311 314 316 315 315 319 319 319 323 325 323 320 321 322 313 292 296 297 291 294 289 262 276 296 287 270 264 275 264 273 264 294 299 340 341 303 301 297 316 317 331 303 303 280 260 317 288 299 261 269 12 21 2 343
314 316 316 316 316 318 317 319 327 323 320 318 316 319 320 312 303 284 290 292 295 281 303 286 280 152 265 287 285 230 242 230 222 219 275 279 275 288 322 303 294 284 128 288 282 25 315 308 351 28 34 9 354 7
313 314 314 313 315 314 315 320 322 322 318 318 319 316 304 301 293 289 283 285 284 275 278 282 300 303 288 264 234 240 250 274 253 241 251 268 274 257 283 283 294 267 309 332 292 282 309 309 24 27 31 22 13 47
311 312 313 315 316 315 316 319 324 324 319 318 317 313 309 310 300 291 289 287 267 226 284 291 312 61 309 299 211 227 235 247 247 179 240 250 261 266 270 262 283 323 321 358 300 306 314 345 30 24 27 30 7 44
311 314 316 315 315 317 319 321 321 323 320 317 316 307 303 303 300 313 322 342 212 199 284 290 315 310 335 216 216 226 227 245 229 216 243 267 256 239 309 289 272 319 332 316 292 327 6 40 40 26 21 33 32 55
315 317 316 316 319 320 321 321 321 323 322 320 315 308 300 294 279 246 253 246 198 166 244 286 308 296 316 219 221 235 239 246 249 245 238 248 263 206 213 286 312 330 335 347 347 352 17 39 33 44 34 39 52 70
315 318 318 320 321 324 324 323 325 327 324 320 312 304 295 281 276 276 334 221 172 224 253 285 275 312 203 194 225 216 212 215 239 253 255 240 155 187 265 270 304 327 336 6 24 31 34 39 38 35 40 36 33 35
315 317 320 322 323 326 327 328 329 331 330 324 317 318 325 103 184 306 302 205 216 219 263 226 267 266 299 234 231 204 195 198 248 244 249 155 313 219 233 254 310 346 332 348 16 29 30 34 42 45 37 30 33 33
316 318 322 323 327 330 330 333 333 335 342 336 327 315 276 83 298 292 256 216 205 227 226 254 207 264 306 337 296 43 202 208 208 254 311 82 247 227 213 234 273 324 343 343 16 27 27 44 54 47 40 39 45 48
315 320 322 324 331 330 346 352 346 347 355 4 347 306 272 290 309 243 235 192 204 244 229 241 217 215 244 178 231 233 208 250 270 260 216 307 291 223 178 217 279 249 43 62 59 56 58 57 48 50 41 42 48 50
316 319 321 324 329 334 343 330 338 339 340 324 301 299 312 275 242 262 237 194 199 235 212 204 223 207 235 210 165 238 172 31 246 336 14 268 255 182 189 198 169 137 128 108 64 64 38 29 36 56 48 46 47 43
315 319 321 322 322 327 326 330 333 325 322 335 268 248 228 243 241 220 228 249 242 226 301 269 268 224 194 209 102 84 114 235 324 43 234 233 278 187 193 180 141 152 147 142 103 92 66 56 49 43 45 44 46 48
314 318 320 318 317 315 327 334 335 336 338 297 257 250 205 207 238 207 204 220 318 312 311 302 235 207 191 137 152 173 225 80 40 342 243 240 194 189 186 188 181 169 159 155 143 117 97 79 72 60 53 42 41 43
318 322 310 295 306 318 324 323 324 312 259 245 245 244 227 228 241 256 275 281 300 314 340 322 305 186 253 162 200 116 198 257 199 228 233 223 170 167 202 193 181 178 159 166 178 148 116 108 89 81 66 46 44 51
322 334 312 316 311 310 318 314 316 256 247 243 234 258 259 281 279 284 308 306 328 318 325 72 302 310 239 177 136 214 148 224 242 215 221 185 185 191 200 197 207 187 185 186 165 152 142 136 128 124 104 56 53 58
316 324 329 328 318 317 323 305 235 221 232 234 246 245 258 278 270 279 301 302 313 322 211 148 248 210 325 222 210 176 202 221 217 196 190 194 198 209 211 214 200 187 187 184 185 166 151 157 142 126 96 82 66 67
310 325 330 334 327 334 334 226 240 242 242 247 245 271 270 274 288 291 295 303 295 270 249 228 207 184 232 221 254 237 226 230 218 198 192 190 198 211 205 205 207 197 190 191 183 175 182 180 186 137 94 90 90 79
316 322 326 322 324 326 299 259 238 265 252 269 274 279 286 287 295 298 300 303 303 287 248 213 217 196 227 204 245 255 235 221 222 217 221 198 216 214 206 213 207 193 192 189 186 193 189 190 186 157 106 95 90 85
316 328 342 348 289 298 272 269 243 260 260 264 275 283 291 290 301 300 298 303 301 287 230 221 205 220 239 263 259 276 275 254 231 217 228 210 215 216 218 214 210 200 194 196 190 186 183 183 187 180 130 107 72 93
329 341 311 313 306 241 261 278 255 257 278 273 283 322 307 295 293 289 293 332 272 222 232 251 284 294 298 290 279 272 278 272 252 236 233 217 209 216 208 213 220 201 201 199 191 192 198 199 192 185 183 160 119 90
333 334 326 331 251 246 257 250 255 289 303 286 293 300 279 295 290 301 328 279 236 16 7 340 330 322 304 294 285 275 272 270 247 254 238 226 211 213 212 210 213 200 205 204 203 198 196 193 194 191 195 193 174 110
331 323 296 246 253 250 264 269 248 275 297 300 302 288 262 272 270 295 256 289 39 352 350 342 332 333 328 299 298 288 272 270 246 233 230 231 227 224 232 217 214 208 207 209 204 201 193 190 196 203 198 202 197 191
323 267 268 276 239 271 294 271 258 253 302 360 307 299 304 284 278 248 239 48 356 348 342 343 347 343 333 340 327 325 321 271 247 231 230 232 231 223 221 214 213 217 216 214 205 198 197 194 199 202 196 197 197 202
289 246 211 266 258 258 254 262 342 47 300 265 282 262 252 318 302 319 52 357 0 1 360 355 353 350 351 344 349 354 331 272 247 241 235 237 235 211 215 216 211 219 217 207 196 197 195 198 196 193 195 197 199 193
259 229 190 229 255 226 322 327 295 242 314 274 260 282 310 276 256 6 68 358 348 17 13 21 13 6 11 3 350 345 332 302 255 232 227 225 226 222 212 199 201 207 205 201 203 194 197 196 194 194 197 201 205 203
272 280 240 244 273 297 292 276 273 253 245 236 258 350 344 310 343 37 12 3 350 351 3 5 16 20 17 14 24 19 355 285 250 233 225 211 221 230 222 203 209 208 200 201 211 207 203 201 196 196 199 204 206 210
249 270 239 249 255 242 242 230 245 246 256 247 29 300 280 293 30 347 353 359 2 6 7 6 14 28 29 17 10 21 36 61 103 171 193 184 194 206 204 210 211 210 216 213 212 206 206 206 205 203 205 205 196 195
252 260 285 280 274 246 233 226 247 238 247 19 359 306 47 52 13 11 12 13 23 29 30 25 21 22 25 30 24 28 27 32 58 69 84 90 118 129 206 217 220 236 222 215 215 211 209 214 214 208 204 202 196 191
262 261 267 274 263 265 251 224 237 254 275 287 280 277 107 78 36 34 34 34 35 32 33 36 33 30 27 28 33 29 26 32 32 36 39 36 25 22 15 266 234 221 213 213 212 209 213 213 206 199 195 190 189 190
275 277 254 247 266 300 327 325 309 290 282 298 325 241 162 139 47 30 35 36 36 35 33 34 33 28 23 27 30 32 35 29 33 30 28 19 354 338 334 302 254 225 214 218 212 211 214 210 199 192 190 188 186 186
238 228 238 262 285 314 331 327 308 63 56 55 23 81 89 79 46 19 18 27 33 35 32 33 33 32 25 29 42 47 41 32 29 32 32 24 16 10 344 313 297 265 235 220 218 213 219 213 188 186 193 187 184 182
275 282 290 306 295 321 313 312 245 104 76 64 39 48 62 72 71 17 12 25 28 27 33 39 42 39 32 36 51 61 60 57 55 54 53 48 48 44 41 26 267 206 213 209 204 202 195 193 197 184 177 173 168 170